Regional Weather Roundup
Issued by NWS

Home | Current Version | Previous Version | Text Only | Print | Product List | Glossary On
Versions: 1 2 3 4 5 6 7 8 9 10 11 12 13 14 15 16 17 18 19 20 21 22 23 24 25 26 27 28 29 30 31 32 33 34 35 36 37 38 39 40 41 42 43 44 45 46 47 48 49 50
000
ASUS43 KDTX 231901
RWRMI
MICHIGAN HOURLY REGIONAL WEATHER ROUNDUP
NATIONAL WEATHER SERVICE DETROIT/PONTIAC MI
300 PM EDT SAT AUG 23 2014

NOTE: "FAIR" INDICATES FEW OR NO CLOUDS BELOW 12,000 FEET WITH NO
SIGNIFICANT WEATHER AND/OR OBSTRUCTION TO VISIBILITY.

MIZ047>049-052>055-059>063-066>070-074>076-081>083-232000-
SOUTHEAST LOWER MICHIGAN

CITY           SKY/WX    TMP DP  RH WIND       PRES   REMARKS
ADRIAN         MOSUNNY   81  65  58 SE5       30.06F
ALMA           PTSUNNY   76  65  69 E8        30.10S
ANN ARBOR      PTSUNNY   79  66  64 E9        30.07R
BAD AXE        CLOUDY    75  69  81 E8        30.10F
CARO           PTSUNNY   77  66  68 E6        30.08S
DETROIT CITY   PTSUNNY   80  66  62 E7        30.07F
DETROIT        PTSUNNY   78  66  66 N7        30.07S
FLINT          MOSUNNY   82  64  54 E7        30.08S
GROSSE ILE     SUNNY     75  70  83 S6        30.06S
HILLSDALE      PTSUNNY   82  68  62 E6        30.07S
HOWELL         SUNNY     79  65  60 NE6       30.07S

CITY           SKY/WX    TMP DP  RH WIND       PRES   REMARKS
JACKSON        PTSUNNY   82  63  52 E3        30.06S
LAMBERTVILLE   MOSUNNY   79  64  61 E5        30.07S
LANSING        MOSUNNY   79  66  64 N9        30.08S
LAPEER         CLOUDY    72  65  80 E5        30.10S
MASON          SUNNY     79  65  61 NE3       30.07S
MONROE         MOSUNNY   79  66  65 E6        30.06R
MT. CLEMENS    MOSUNNY   78  65  63 SE5       30.07S
PONTIAC        PTSUNNY   75  65  70 E7        30.08S
PORT HOPE        N/A     70  65  84 NE6       30.10S
PORT HURON     PTSUNNY   77  68  73 NE6       30.08S
TRI CITIES     PTSUNNY   75  65  70 N7        30.10S
TROY           PTSUNNY   75  65  70 CALM      30.10F
SAGINAW HB     CLOUDY    73  64  73 NE6       30.09S
$$
MIZ043>046-050>051-056>058-064>065-071>073-077>080-232000-
SOUTHWEST LOWER MICHIGAN

CITY           SKY/WX    TMP DP  RH WIND       PRES   REMARKS
BATTLE CREEK   MOSUNNY   82  67  60 E9        30.06F
BENTON HARBOR  PTSUNNY   83  71  67 SE10      30.01F
BIG RAPIDS     MOSUNNY   80  67  64 E7        30.07F
COLDWATER      CLOUDY    82  71  68 NE7       30.04F
FREMONT        FAIR      82  60  48 E9        30.05F
HOLLAND        PTSUNNY   83  71  67 E10       30.04F
GRAND RAPIDS   PTSUNNY   83  70  64 E12       30.06F
IONIA          FAIR      78  65  63 E7        30.07S
KALAMAZOO      CLOUDY    84  69  60 VRB7      30.04F
LUDINGTON      PTSUNNY   82  67  60 SE8       30.04F
MARSHALL       MOSUNNY   81  66  60 E3        30.05F
MOUNT PLEASANT SUNNY     77  64  63 E5        30.09S
MUSKEGON       CLOUDY    83  66  56 E12       30.04F
SOUTH HAVEN    PTSUNNY   83  72  69 SE8       30.02S
$$
MIZ016>042-232000-
NORTHERN LOWER MICHIGAN

CITY           SKY/WX    TMP DP  RH WIND       PRES   REMARKS
ALPENA         PTSUNNY   73  65  75 E10       30.12S
BEAVER ISLAND  MOSUNNY   75  66  72 E13       30.09S
BELLAIRE       MOSUNNY   84  60  43 SE8       30.06S
CADILLAC       MOSUNNY   81  65  59 SE9       30.08S
CHARLEVOIX     MOSUNNY   80  64  56 E12       30.10F
FRANKFORT      MOSUNNY   83  63  50 W6        30.05S
GAYLORD        MOSUNNY   76  62  62 SE9       30.11S
GRAYLING       MOSUNNY   79  64  59 E8        30.11S
HARBOR SPRINGS MOSUNNY   80  65  59 E8        30.09F
HOUGHTON LAKE  MOSUNNY   78  62  57 E8        30.10S
MANISTEE       MOSUNNY   82  64  54 E3        30.05F
OSCODA         CLOUDY    68  64  88 NE9       30.11F
PELLSTON       CLOUDY    76  65  68 E10       30.11R
ROGERS CITY    PTSUNNY   68  66  95 E8        30.13F
TRAVERSE CITY  MOSUNNY   86  61  42 E9        30.04S
$$
MIZ007>008-015-232000-
EASTERN UPPER MICHIGAN

CITY           SKY/WX    TMP DP  RH WIND       PRES   REMARKS
KINROSS        CLOUDY    72  66  83 SE9       30.13S
MACKINAC ISLAN CLOUDY    67  66  94 E14       30.12S
NEWBERRY       PTSUNNY   75  64  68 E6G16     30.11S
S. S. MARIE    CLOUDY    72  64  76 SE9       30.13S
$$
MIZ004>006-011>014-085-232000-
CENTRAL UPPER MICHIGAN

CITY           SKY/WX    TMP DP  RH WIND       PRES   REMARKS
MANISTIQUE     CLOUDY    73  66  79 E7        30.09S
ESCANABA       CLOUDY    68  64  88 NE6       30.08S
MENOMINEE      PTSUNNY   75  64  69 E9        30.04S
SAWYER-GWINN   CLOUDY    68  64  88 SE12      30.10S FOG
$$
MIZ001>003-009>011-084-232000-
WESTERN UPPER MICHIGAN

CITY           SKY/WX    TMP DP  RH WIND       PRES   REMARKS
IRON MOUNTAIN  LGT RAIN  68  65  90 SE8       30.06S FOG
HOUGHTON       CLOUDY    65  62  90 E8        30.07S FOG
COPPER HARBOR    N/A     70  64  81 VRB7      30.07S
$$

ABBREVIATIONS USED IN REMARKS
   TC - TEMPERATURE IN CELSIUS
  WCI - WIND CHILL INDEX
   HX - HEAT INDEX
  VSB - VISIBILITY



USA.gov is the U.S. government's official web portal to all federal, state and local government web resources and services.